Arcata, CA

5:20 PM PDT on May 22, 2017 (GMT -0700)
Arcata

Weather History for KACV - November, 2013

Change the Weather History Date:

Friday, November 1, 2013

  Actual Average Record
Temperature  
Mean Temperature 46 °F -  
Max Temperature 54 °F 57 °F 69 °F (2008)
Min Temperature 39 °F 41 °F 30 °F (2002)
Degree Days  
Heating Degree Days 19    
Moisture  
Dew Point 43 °F    
Average Humidity 94    
Maximum Humidity 100    
Minimum Humidity 82    
Precipitation  
Precipitation 0.01 in - - ()
Sea Level Pressure  
Sea Level Pressure 30.14 in    
Wind  
Wind Speed 2 mph (NW)    
Max Wind Speed 7 mph    
Max Gust Speed -    
Visibility 2 miles    
Events Fog    
Averages and records for this station are not official NWS values.
T = Trace of Precipitation, MM = Missing Value Source: NWS Daily Summary

Daily Weather History Graph

Daily Weather History Graph

Search for Another Location

Airport or City:

Trip Planner

Search our weather history database for the weather conditions in past years. The results will help you decide how hot, cold, wet, or windy it might be!

Date:

Astronomy

Nov. 01, 2013 Rise Set
Actual Time 7:47 AM PDT 6:11 PM PDT
Civil Twilight 7:19 AM PDT 6:40 PM PDT
Nautical Twilight 6:46 AM PDT 7:12 PM PDT
Astronomical Twilight 6:14 AM PDT 7:44 PM PDT
Moon 5:45 AM PDT (11/1) 5:08 PM PDT (11/1)
Length of Visible Light 11h 21m
Length of Day
10h 24m
Waning Crescent, 4% of the Moon is Illuminated
Nov 1
Waning Crescent
Nov 3
New
Nov 9
First Quarter
Nov 17
Full
Nov 25
Last Quarter

Hourly Weather History & Observations

Time (PDT) Temp. Windchill Dew Point Humidity Pressure Visibility Wind Dir Wind Speed Gust Speed Precip Events Conditions
12:53 AM 42.1 °F - 39.9 °F 92% 30.21 in 7.0 mi Calm Calm - N/A   Clear
1:07 AM 42.8 °F - 39.2 °F 87% 30.19 in 6.0 mi Calm Calm - N/A   Scattered Clouds
1:12 AM 42.8 °F 41.1 °F 41.0 °F 93% 30.19 in 0.8 mi NE 3.5 mph - N/A   Mist
1:20 AM 44.6 °F - 42.8 °F 93% 30.19 in 0.2 mi Calm Calm - N/A Fog Fog
1:53 AM 46.0 °F 44.8 °F 44.1 °F 93% 30.20 in 0.2 mi East 3.5 mph - N/A Fog Fog
2:20 AM 44.6 °F 43.1 °F 42.8 °F 93% 30.17 in 0.2 mi ESE 3.5 mph - N/A Fog Fog
2:27 AM 44.6 °F - 42.8 °F 93% 30.17 in 0.5 mi Calm Calm - N/A Fog Fog
2:39 AM 42.8 °F - 42.8 °F 100% 30.16 in 2.0 mi Calm Calm - N/A   Scattered Clouds
2:48 AM 42.8 °F 41.1 °F 41.0 °F 93% 30.16 in 9.0 mi SE 3.5 mph - N/A   Partly Cloudy
2:53 AM 43.0 °F 41.3 °F 41.0 °F 93% 30.18 in 10.0 mi SE 3.5 mph - N/A   Partly Cloudy
3:53 AM 41.0 °F - 39.0 °F 93% 30.17 in 6.0 mi Calm Calm - N/A   Clear
4:50 AM 39.2 °F - 37.4 °F 93% 30.15 in 10.0 mi Calm Calm - N/A   Scattered Clouds
4:53 AM 39.9 °F - 39.0 °F 97% 30.17 in 9.0 mi Calm Calm - N/A   Scattered Clouds
5:00 AM 39.2 °F - 37.4 °F 93% 30.15 in 3.0 mi Calm Calm - N/A   Mostly Cloudy
5:02 AM 39.2 °F - 37.4 °F 93% 30.15 in 1.5 mi Calm Calm - N/A   Mostly Cloudy
5:22 AM 41.0 °F 39.0 °F 39.2 °F 93% 30.15 in 0.5 mi NE 3.5 mph - N/A Fog Fog
5:30 AM 42.8 °F - 39.2 °F 87% 30.15 in 0.2 mi Calm Calm - N/A Fog Fog
5:48 AM 39.2 °F - 39.2 °F 100% 30.15 in 0.2 mi Calm Calm - 0.01 in Fog Fog
5:53 AM 39.9 °F 37.8 °F 39.0 °F 97% 30.17 in 0.2 mi South 3.5 mph - 0.01 in Fog Fog
6:04 AM 39.2 °F 35.0 °F 37.4 °F 93% 30.14 in 0.2 mi South 5.8 mph - N/A Fog Fog
6:06 AM 39.2 °F 35.9 °F 37.4 °F 93% 30.14 in 0.2 mi South 4.6 mph - N/A Fog Fog
6:20 AM 39.2 °F - 39.2 °F 100% 30.15 in 0.5 mi Calm Calm - N/A Fog Fog
6:30 AM 39.2 °F - 39.2 °F 100% 30.15 in 1.2 mi Calm Calm - N/A   Mist
6:37 AM 39.2 °F - 37.4 °F 93% 30.15 in 3.0 mi Calm Calm - N/A   Mist
6:46 AM 39.2 °F - 37.4 °F 93% 30.15 in 8.0 mi Calm Calm - N/A   Overcast
6:51 AM 39.2 °F - 37.4 °F 93% 30.15 in 1.5 mi Calm Calm - N/A   Overcast
6:53 AM 39.9 °F - 37.9 °F 93% 30.18 in 0.8 mi Calm Calm - N/A   Mist
7:30 AM 41.0 °F - 39.2 °F 93% 30.15 in 1.2 mi Calm Calm - N/A   Overcast
7:33 AM 42.8 °F - 39.2 °F 87% 30.15 in 0.8 mi Calm Calm - N/A   Mist
7:38 AM 42.8 °F - 39.2 °F 87% 30.15 in 0.2 mi Calm Calm - N/A Fog Fog
7:53 AM 41.0 °F - 41.0 °F 100% 30.18 in 0.2 mi Calm Calm - N/A Fog Fog
8:13 AM 41.0 °F - 39.2 °F 93% 30.16 in 0.2 mi Calm Calm - N/A Fog Fog
8:21 AM 41.0 °F - 39.2 °F 93% 30.15 in 1.0 mi Calm Calm - N/A   Mist
8:26 AM 41.0 °F - 39.2 °F 93% 30.16 in 3.0 mi Calm Calm - N/A   Overcast
8:43 AM 42.8 °F - 41.0 °F 93% 30.16 in 8.0 mi Calm Calm - N/A   Scattered Clouds
8:53 AM 43.0 °F - 41.0 °F 93% 30.19 in 8.0 mi Calm Calm - N/A   Partly Cloudy
9:02 AM 44.6 °F - 42.8 °F 93% 30.17 in 1.8 mi Calm Calm - N/A   Scattered Clouds
9:04 AM 44.6 °F - 42.8 °F 93% 30.17 in 0.8 mi Calm Calm - N/A   Mist
9:13 AM 44.6 °F 43.1 °F 42.8 °F 93% 30.17 in 0.2 mi North 3.5 mph - N/A Fog Fog
9:24 AM 44.6 °F - 42.8 °F 93% 30.17 in 0.2 mi Calm Calm - N/A Fog Fog
9:31 AM 44.6 °F - 44.6 °F 100% 30.18 in 0.2 mi Calm Calm - N/A Fog Fog
9:48 AM 46.4 °F 45.2 °F 44.6 °F 93% 30.17 in 0.2 mi Variable 3.5 mph - N/A Fog Fog
9:53 AM 46.9 °F - 46.0 °F 97% 30.19 in 2.0 mi Calm Calm - N/A   Mostly Cloudy
9:59 AM 48.2 °F - 46.4 °F 93% 30.17 in 10.0 mi ESE 3.5 mph - N/A   Scattered Clouds
10:20 AM 48.2 °F - 46.4 °F 93% 30.17 in 1.5 mi NW 4.6 mph - N/A   Partly Cloudy
10:25 AM 48.2 °F - 46.4 °F 93% 30.17 in 0.2 mi WNW 4.6 mph - N/A Fog Fog
10:53 AM 46.0 °F 43.9 °F 45.0 °F 96% 30.19 in 0.2 mi WNW 4.6 mph - N/A Fog Fog
11:00 AM 46.4 °F 45.2 °F 44.6 °F 93% 30.17 in 0.2 mi WNW 3.5 mph - N/A Fog Fog
11:20 AM 46.4 °F - 46.4 °F 100% 30.17 in 0.2 mi Calm Calm - N/A Fog Fog
11:26 AM 46.4 °F - 46.4 °F 100% 30.17 in 0.2 mi Calm Calm - N/A Fog Fog
11:40 AM 48.2 °F - 46.4 °F 93% 30.16 in 0.5 mi WNW 3.5 mph - N/A Fog Fog
11:53 AM 48.0 °F - 46.9 °F 96% 30.19 in 0.8 mi WNW 3.5 mph - N/A   Overcast
12:17 PM 48.2 °F - 46.4 °F 93% 30.16 in 2.0 mi West 3.5 mph - N/A   Overcast
12:23 PM 48.2 °F - 46.4 °F 93% 30.16 in 0.8 mi Calm Calm - N/A   Overcast
12:40 PM 48.2 °F - 48.2 °F 100% 30.15 in 2.0 mi Calm Calm - N/A   Mostly Cloudy
12:48 PM 50.0 °F - 46.4 °F 87% 30.15 in 10.0 mi Variable 3.5 mph - N/A   Scattered Clouds
12:53 PM 50.0 °F - 46.9 °F 89% 30.17 in 10.0 mi NW 5.8 mph - N/A   Scattered Clouds
1:06 PM 50.0 °F - 46.4 °F 87% 30.14 in 2.0 mi NW 3.5 mph - N/A   Mostly Cloudy
1:16 PM 51.8 °F - 48.2 °F 88% 30.14 in 5.0 mi Calm Calm - N/A   Scattered Clouds
1:53 PM 53.1 °F - 48.0 °F 83% 30.14 in 10.0 mi WNW 4.6 mph - N/A   Clear
2:23 PM 50.0 °F - 46.4 °F 87% 30.13 in 2.0 mi NW 6.9 mph - N/A   Scattered Clouds
2:26 PM 48.2 °F - 46.4 °F 93% 30.13 in 1.0 mi NNW 5.8 mph - N/A   Mist
2:33 PM 48.2 °F - 46.4 °F 93% 30.12 in 0.8 mi NNW 4.6 mph - N/A   Mist
2:43 PM 48.2 °F - 46.4 °F 93% 30.12 in 1.5 mi NW 3.5 mph - N/A   Overcast
2:53 PM 48.9 °F - 46.0 °F 90% 30.14 in 2.0 mi NW 4.6 mph - N/A   Overcast
3:07 PM 50.0 °F - 46.4 °F 87% 30.11 in 5.0 mi NW 3.5 mph - N/A   Mostly Cloudy
3:21 PM 51.8 °F - 46.4 °F 82% 30.11 in 7.0 mi NW 5.8 mph - N/A   Scattered Clouds
3:27 PM 50.0 °F - 46.4 °F 87% 30.11 in 1.5 mi NW 6.9 mph - N/A   Mostly Cloudy
3:35 PM 48.2 °F - 46.4 °F 93% 30.11 in 0.5 mi NW 5.8 mph - N/A Fog Fog
3:43 PM 48.2 °F - 46.4 °F 93% 30.11 in 0.2 mi NW 5.8 mph - N/A Fog Fog
3:53 PM 48.0 °F - 46.0 °F 93% 30.14 in 0.2 mi NNW 4.6 mph - N/A Fog Fog
4:02 PM 48.2 °F - 46.4 °F 93% 30.11 in 0.2 mi NW 5.8 mph - N/A Fog Fog
4:53 PM 48.9 °F - 46.9 °F 93% 30.13 in 0.2 mi Calm Calm - N/A Fog Fog
5:13 PM 48.2 °F - 46.4 °F 93% 30.10 in 0.2 mi Calm Calm - N/A Fog Fog
5:36 PM 48.2 °F - 48.2 °F 100% 30.09 in 0.2 mi Calm Calm - N/A Fog Fog
5:53 PM 48.0 °F - 46.0 °F 93% 30.12 in 0.2 mi Calm Calm - N/A Fog Fog
6:53 PM 48.0 °F - 46.0 °F 93% 30.11 in 0.2 mi ESE 3.5 mph - N/A Fog Fog
7:22 PM 46.4 °F 45.2 °F 46.4 °F 100% 30.08 in 0.2 mi South 3.5 mph - N/A Fog Fog
7:35 PM 48.2 °F - 46.4 °F 93% 30.09 in 0.2 mi SW 3.5 mph - N/A Fog Fog
7:44 PM 48.2 °F - 46.4 °F 93% 30.09 in 0.2 mi SSW 3.5 mph - N/A Fog Fog
7:53 PM 46.9 °F - 46.0 °F 97% 30.11 in 0.2 mi Calm Calm - N/A Fog Fog
8:05 PM 46.4 °F - 46.4 °F 100% 30.09 in 0.2 mi Calm Calm - N/A Fog Fog
8:43 PM 46.4 °F 45.2 °F 44.6 °F 93% 30.06 in 0.5 mi ESE 3.5 mph - N/A Fog Fog
8:53 PM 45.0 °F 43.5 °F 44.1 °F 97% 30.08 in 0.5 mi ESE 3.5 mph - N/A Fog Fog
9:18 PM 42.8 °F - 42.8 °F 100% 30.05 in 1.2 mi Calm Calm - N/A   Scattered Clouds
9:21 PM 42.8 °F - 42.8 °F 100% 30.05 in 3.0 mi Calm Calm - N/A   Partly Cloudy
9:24 PM 42.8 °F - 41.0 °F 93% 30.05 in 1.2 mi Calm Calm - N/A   Partly Cloudy
9:27 PM 42.8 °F - 41.0 °F 93% 30.05 in 0.2 mi Calm Calm - N/A Fog Fog
9:43 PM 42.8 °F - 41.0 °F 93% 30.05 in 1.0 mi Calm Calm - N/A   Mist
9:53 PM 41.0 °F - 39.9 °F 96% 30.08 in 0.5 mi Calm Calm - N/A Fog Fog
10:00 PM 42.8 °F 41.1 °F 41.0 °F 93% 30.06 in 0.2 mi NNW 3.5 mph - N/A Fog Fog
10:21 PM 44.6 °F 43.1 °F 42.8 °F 93% 30.06 in 0.2 mi East 3.5 mph - N/A Fog Fog
10:28 PM 42.8 °F 39.3 °F 42.8 °F 100% 30.06 in 0.5 mi East 5.8 mph - N/A Fog Fog
10:53 PM 41.0 °F - 39.9 °F 96% 30.09 in 0.2 mi Calm Calm - N/A Fog Fog
11:25 PM 42.8 °F - 42.8 °F 100% 30.06 in 0.2 mi Calm Calm - N/A Fog Fog
11:53 PM 44.1 °F - 42.1 °F 93% 30.09 in 0.2 mi Calm Calm - N/A Fog Fog